Home > Weather > Mödling > Past weeks

Flag for Austria Past Weather in Mödling, Lower Austria, Austria — Yesterday and Last 2 Weeks

Now
67 °F

Passing clouds.


Feels Like: 67 °F
Forecast: 67 / 81 °F
Wind: 2 mph from West

Location: Wien / Hohe Warte

Current Time: Jun 30, 2016 at 5:21:34 AM

Latest Report: Jun 30, 2016 at 4:00 AM


Visibility: 25 mi

Pressure: 29.93 "Hg

Humidity: 83%

Dew Point: 61 °F

Location of MödlingLocation

Past Weather in Mödling — Graph

°F

Mödling Temperature Yesterday

Maximum temperature yesterday: 86 °F (at 4:00 PM)
Minimum temperature yesterday: 59 °F (at 5:00 AM)
Average temperature yesterday: 73 °F

High & Low Weather Summary for the Past Weeks

 TemperatureHumidityPressure
High91 °F (Jun 24, 5:00 PM)96% (Jun 21, 4:00 AM)30.27 "Hg (Jun 21, 4:00 AM)
Low56 °F (Jun 21, 5:00 AM)37% (Jun 23, 6:00 PM)29.47 "Hg (Jun 17, 5:00 AM)
Average70 °F69%29.98 "Hg
* Reported Jun 15 4:00 AM — Jun 30 4:00 AM, Mödling, Weather by CustomWeather, © 2016

Note: Actual official high and low records may vary slightly from our data, if they occured in-between our weather recording intervals... More about our weather records

Advertising

Mödling Weather History for the Previous 24 Hours

Scroll right to see more
 ConditionsComfort  
Time TempWeatherWind HumidityBarometerVisibility
4:00 AM
Thu, Jun 30
67 °FPassing clouds.2 mph83%29.93 "Hg25 mi
3:00 AM67 °FMild.1 mph81%29.94 "HgN/A
2:00 AM68 °FPassing clouds.No wind78%29.94 "Hg19 mi
1:00 AM68 °FMild.No wind76%29.93 "HgN/A
12:00 AM69 °FMild.1 mph73%29.94 "HgN/A
11:00 PM
Wed, Jun 29
70 °FClear.No wind70%29.94 "Hg25 mi
10:00 PM73 °FPassing clouds.2 mph67%29.94 "Hg25 mi
9:00 PM76 °FPassing clouds.2 mph62%29.92 "Hg37 mi
8:00 PM80 °FPassing clouds.2 mph49%29.90 "Hg37 mi
7:00 PM83 °FPassing clouds.2 mph45%29.90 "Hg37 mi
6:00 PM84 °FPassing clouds.3 mph41%29.90 "Hg37 mi
5:00 PM85 °FScattered clouds.5 mph41%29.91 "Hg37 mi
4:00 PM86 °FPassing clouds.6 mph39%29.92 "Hg34 mi
3:00 PM85 °FPassing clouds.5 mph37%29.93 "Hg31 mi
2:00 PM84 °FPassing clouds.2 mph40%29.93 "Hg31 mi
1:00 PM82 °FPassing clouds.1 mph46%29.94 "Hg31 mi
12:00 PM79 °FPassing clouds.No wind48%29.96 "Hg31 mi
10:00 AM76 °FPassing clouds.1 mph50%29.97 "Hg19 mi
9:00 AM73 °FPassing clouds.2 mph62%29.98 "Hg19 mi
8:00 AM69 °FPassing clouds.1 mph68%29.99 "Hg19 mi
7:00 AM64 °FPassing clouds.2 mph83%29.99 "Hg19 mi
6:00 AM59 °FPassing clouds.No wind90%30.00 "Hg19 mi
5:00 AM59 °FCool.No wind89%30.00 "HgN/A
Weather by CustomWeather, © 2016

See weather overviewHow to use our weather pages